Regional Weather Roundup
Issued by NWS

Home | Current Version | Previous Version | Text Only | Print | Product List | Glossary Off
Versions: 1 2 3 4 5 6 7 8 9 10 11 12 13 14 15 16 17 18 19 20 21 22 23 24 25 26 27 28 29 30 31 32 33 34 35 36 37 38 39 40 41 42 43 44 45 46 47 48 49 50

000
ASUS43 KFSD 251410
RWRSD

WEATHER ROUNDUP FOR SOUTH DAKOTA
NATIONAL WEATHER SERVICE SIOUX FALLS SD
900 AM CDT WED APR 25 2018

NOTE: "FAIR" INDICATES FEW OR NO CLOUDS BELOW 12,000 FEET WITH NO
SIGNIFICANT WEATHER AND/OR OBSTRUCTIONS TO VISIBILITY.


SDZ001>005-009-010-012>017-251500-
NORTHWEST AND NORTH CENTRAL SOUTH DAKOTA

CITY           SKY/WX    TMP DP  RH WIND       PRES   REMARKS
BUFFALO          N/A     41  30  65 S9        30.10F
FAITH            N/A     39  31  72 SW13      30.21F
MOBRIDGE       SUNNY     38  32  79 SE7       30.21F
$$

SDZ012>016-024>037-041>051-057-063-072>074-251500-
SOUTHWEST AND SOUTH CENTRAL SOUTH DAKOTA

CITY           SKY/WX    TMP DP  RH WIND       PRES   REMARKS
RAPID CTY ARPT SUNNY     34  27  75 SE5       30.22F WCI  30
PIERRE         SUNNY     36  31  82 SW7       30.27F
CUSTER         SUNNY     37  21  52 W15       30.23F
ELLSWORTH AFB  SUNNY     38  28  68 S5        30.21F
PHILIP         SUNNY     40  32  73 SW8       30.28F
PINE RIDGE     SUNNY     35  32  88 CALM      30.31F
SPEARFISH      FAIR      41  25  52 CALM      30.19F
WINNER         FAIR      41  32  70 SW7       30.30F
$$

SDZ004>011-016>023-039-040-251500-
NORTHEAST SOUTH DAKOTA

CITY           SKY/WX    TMP DP  RH WIND       PRES   REMARKS
ABERDEEN       SUNNY     42  34  73 S7        30.27F
WATERTOWN      SUNNY     38  31  76 CALM      30.26F
BROOKINGS      SUNNY     37  32  82 NW3       30.28S
SISSETON         N/A     44  31  60 S7        30.25F
$$

SDZ017-020-022-023-036>040-048>070-251500-
SOUTHEAST SOUTH DAKOTA

CITY           SKY/WX    TMP DP  RH WIND       PRES   REMARKS
SIOUX FALLS    MOSUNNY   42  29  59 NE6       30.29S
HURON          SUNNY     42  34  73 CALM      30.30S
CHAMBERLAIN    SUNNY     39  38  96 W7        30.30F
MITCHELL       SUNNY     40  33  76 CALM      30.31F
YANKTON        SUNNY     41  34  76 NW10      30.30F
$$

ABBREVIATIONS USED IN REMARKS
   TC - TEMPERATURE IN CELSIUS
  WCI - WIND CHILL INDEX
   HX - HEAT INDEX
  VSB - VISIBILITY





USA.gov is the U.S. government's official web portal to all federal, state and local government web resources and services.